Overview Statistics Trail Chart Weather Telemetry Raw packets
 

This is the latest recevied weather packets stored in our database for station/object KC5DAQ-26. If no packets are shown the sender has not sent any weather packets the latest 10 day(s).

<< 497 498 499 500 501 502 503 >>
Time Temp. Humidity Pressure Rain* Wind** Luminosity Snow
1787868963 36.67° C 52% 1014.3 hPa 0 mm - 480 W/m² -
1787868905 36.67° C 54% 1014.3 hPa 0 mm - 485 W/m² -
1787868843 36.67° C 51% 1014.3 hPa 0 mm - 485 W/m² -
1787868782 36.67° C 52% 1014.4 hPa 0 mm - 491 W/m² -
1787868722 36.67° C 51% 1014.3 hPa 0 mm - 494 W/m² -
1787868663 36.67° C 50% 1014.4 hPa 0 mm - 499 W/m² -
1787868603 36.67° C 50% 1014.3 hPa 0 mm - 503 W/m² -
1787868543 36.67° C 53% 1014.4 hPa 0 mm - 506 W/m² -
1787868483 36.67° C 52% 1014.4 hPa 0 mm - 512 W/m² -
1787868422 36.67° C 51% 1014.4 hPa 0 mm - 517 W/m² -
1787868362 36.67° C 50% 1014.5 hPa 0 mm - 521 W/m² -
1787868311 36.67° C 50% 1014.5 hPa 0 mm - 526 W/m² -
1787868243 36.67° C 51% 1014.5 hPa 0 mm - 543 W/m² -
1787868184 36.67° C 50% 1014.4 hPa 0 mm - 543 W/m² -
1787868124 36.67° C 50% 1014.4 hPa 0 mm - 543 W/m² -
1787868063 36.67° C 50% 1014.4 hPa 0 mm - 543 W/m² -
1787868006 36.67° C 50% 1014.4 hPa 0 mm - 543 W/m² -
1787867942 36.67° C 54% 1014.5 hPa 0 mm - 545 W/m² -
1787867884 36.67° C 52% 1014.5 hPa 0 mm - 547 W/m² -
1787867822 36.67° C 51% 1014.5 hPa 0 mm - 550 W/m² -
1787867763 36.67° C 50% 1014.5 hPa 0 mm - 552 W/m² -
1787867704 36.67° C 50% 1014.5 hPa 0 mm - 556 W/m² -
1787867643 36.67° C 49% 1014.5 hPa 0 mm - 557 W/m² -
1787867583 36.67° C 50% 1014.6 hPa 0 mm - 561 W/m² -
1787867523 36.67° C 54% 1014.6 hPa 0 mm - 563 W/m² -

* Rain latest hour (hover to see other rain measurements)
** Current wind speed in m/s (hover to see current wind gust speed)